Location: Lloyden Park
(37.4658°N, 122.2031°W)
Time: 12:58:52
(UTC+00:00)

BREEZE M DEB (TANK) - Pass Details

Date: 19 May 2025
Orbit: 315 x 13283 km, 49.5° (Epoch: 16 June)

Event Time Altitude Azimuth Distance (km) Brightness Sun altitude
Exits shadow 12:15:38 - 213° (SSW) 1,246 4.1 -7.9°
Reaches altitude 10° 12:15:43 10° 213° (SSW) 1,206 4.0 -7.9°
Maximum altitude 12:17:51 44° 136° (SE) 483 2.7 -7.5°
Drops below altitude 10° 12:20:47 10° 62° (ENE) 1,673 7.1 -7.0°
Sets 12:23:53 0° 56° (ENE) 3,246 9.5 -6.5°
